Miscellaneous Local Product
Issued by NWS North Platte, NE

Home | Current Version | Previous Version | Text Only | Print | Product List | Glossary On
Versions: 1 2 3 4 5 6 7 8 9 10 11 12 13 14 15 16 17 18 19 20 21 22 23 24 25 26 27 28 29 30 31 32 33 34 35 36 37 38 39 40 41 42 43 44 45 46 47 48 49 50
000
AXUS43 KLBF 270310
MISLBF


WESTERN AND NORTH CENTRAL NEBRASKA HOURLY WEATHER ROUNDUP
NATIONAL WEATHER SERVICE NORTH PLATTE NE
1000 PM CDT TUE AUG 26 2014

***STATIONS NOT REPORTING VARIABLES SUCH AS SKY/WEATHER OR
PRESSURE ARE PROVIDED BY THE NEBRASKA DEPARTMENT OF
ROADS...RAWS...AND APRS NETWORKS...AND ARE NOT UNDER
NATIONAL WEATHER SERVICE QUALITY CONTROL***

...OBSERVATIONS IN AND NEAR THE EASTERN PANHANDLE OF NEBRASKA...

CITY           SKY/WX    TMP DP  RH WIND       PRES   REMARKS
PINE RIDGE     LGT RAIN  57  57 100 MISG      30.13F
CHADRON        LGT RAIN  69  62  78 E5        30.13R
ALLIANCE       CLOUDY    70  61  73 SE9       30.16R
SIDNEY         MOCLDY    68  62  81 SE9       30.18R
WHITECLAY        N/A     64  62  93 E3          N/A
RUSHVILLE        N/A     70  64  82 SE12        N/A
GORDON           N/A     75  62  62 S9          N/A
CRESCENT LAKE    N/A     69  61  77 SE6G13      N/A
LISCO            N/A     75  64  69 E10         N/A
BIG SPRINGS      N/A     71  66  84 CALM        N/A
$$

...OBSERVATIONS IN NORTH CENTRAL NEBRASKA...

CITY           SKY/WX    TMP DP  RH WIND       PRES   REMARKS
VALENTINE      MOCLDY    72  62  71 E7        30.11R
THEDFORD       MOCLDY    70  63  79 SE7       30.15R
AINSWORTH      MOCLDY    68  63  84 SE10      30.14R
O`NEILL        PTCLDY    67  65  91 SE7       30.15R
ORD            PTCLDY    67  65  93 CALM      30.13R
BROKEN BOW     MOCLDY    70  66  87 SE7       30.13R
BROWNLEE         N/A     75  63  64 SE12        N/A
SPRINGVIEW       N/A     68  62  82 E3          N/A
ROSE             N/A     71  69  95 E6          N/A
NEWPORT          N/A     67  65  93 E7          N/A
SARGENT          N/A     68  66  93 CALM        N/A
COMSTOCK         N/A     74  72  95 E5          N/A
CHAMBERS         N/A     67  64  90 E3          N/A
$$

...OBSERVATIONS IN SOUTHWEST NEBRASKA AND FAR NORTHEAST COLORADO...

CITY           SKY/WX    TMP DP  RH WIND       PRES   REMARKS
WRAY             N/A     72  64  74 NE7       30.13R
HOLYOKE        FAIR      70  63  78 NE5       30.15R
IMPERIAL       MOCLDY    70  64  81 E6        30.12S
OGALLALA       MOCLDY    67  62  82 NE3       30.14R
NORTH PLATTE   MOCLDY    67  65  93 E8        30.12R
MCCOOK         CLOUDY    73  67  81 E9        30.10R
LEXINGTON      PTCLDY    72  69  89 E9        30.12S
PAXTON           N/A     71  64  78 CALM        N/A
SUTHERLAND       N/A     69  66  89 CALM        N/A
BRADY            N/A     69  65  87 CALM        N/A
GOTHENBURG       N/A     71  64  79 E3          N/A
CALLAWAY         N/A     68  65  90 E6          N/A
$$

...SOME WEATHER OBSERVATIONS FROM AROUND THE REGION...

CITY           SKY/WX    TMP DP  RH WIND       PRES   REMARKS
DENVER         CLOUDY    65  59  81 W10       30.23R
LARAMIE        CLOUDY    56  47  71 E6        30.30S
CHEYENNE       CLOUDY    63  52  67 CALM      30.24S
SCOTTSBLUFF    MOCLDY    68  58  70 SE7       30.13R
RAPID CITY     PTCLDY    65  56  72 E9        30.15R
PIERRE         CLEAR     61  56  83 E8        30.12R
WINNER         FAIR      67  58  72 E12       30.12R
SIOUX FALLS    PTCLDY    66  57  72 SE8       30.16R
OMAHA          MOCLDY    73  66  78 E3        30.12R
GRAND ISLAND   PTCLDY    71  67  87 E9        30.13R
KANSAS CITY    CLOUDY    80  72  76 E12       30.08R
WICHITA        CLOUDY    80  71  74 E3        30.06R
HAYS           PTCLDY    75  64  69 SE7       30.09R
LIBERAL        CLOUDY    77  63  61 SE7       30.14R
GOODLAND       TSTM      67  64  90 SW16      30.18R
$$



USA.gov is the U.S. government's official web portal to all federal, state and local government web resources and services.